Bozeman, MT

1:56 PM MDT on September 24, 2017 (GMT -0600)
Gallatin

Weather History for KBZN - October, 2011

Change the Weather History Date:

Wednesday, October 26, 2011

  Actual Average Record
Temperature  
Mean Temperature 30 °F 42 °F  
Max Temperature 43 °F 57 °F 73 °F (1960)
Min Temperature 17 °F 28 °F 11 °F (2002)
Degree Days  
Heating Degree Days 35 23  
Month to date heating degree days 454 472  
Since 1 July heating degree days 650 777  
Cooling Degree Days 0 0  
Month to date cooling degree days 2 0  
Year to date cooling degree days 200 368  
Moisture  
Dew Point 19 °F    
Average Humidity 87    
Maximum Humidity 92    
Minimum Humidity 81    
Precipitation  
Precipitation 0.00 in 0.03 in 0.51 in (2015)
Month to date precipitation 0.83 0.95  
Year to date precipitation 10.18 12.56  
Snow  
Snow 0.00 in 0.10 in 2.30 in (1991)
Month to date snowfall 1.5  
Since 1 July snowfall 1.8  
Since 1 September snowfall 1.8  
Snow Depth -    
Sea Level Pressure  
Sea Level Pressure 30.34 in    
Wind  
Wind Speed 3 mph (SE)    
Max Wind Speed 9 mph    
Max Gust Speed 10 mph    
Visibility 10 miles    
Events      
T = Trace of Precipitation, MM = Missing Value Source: NWS Daily Summary

Daily Weather History Graph

Daily Weather History Graph

Search for Another Location

Airport or City:

Trip Planner

Search our weather history database for the weather conditions in past years. The results will help you decide how hot, cold, wet, or windy it might be!

Date:

Astronomy

Oct. 26, 2011 Rise Set
Actual Time 7:55 AM MDT 6:20 PM MDT
Civil Twilight 7:25 AM MDT 6:51 PM MDT
Nautical Twilight 6:50 AM MDT 7:25 PM MDT
Astronomical Twilight 6:15 AM MDT 8:00 PM MDT
Moon 7:51 AM MDT (10/26) 6:01 PM MDT (10/26)
Length of Visible Light 11h 25m
Length of Day
10h 24m
Waning Crescent, 0% of the Moon is Illuminated
Oct 26
Waning Crescent
Oct 26
New
Nov 2
First Quarter
Nov 10
Full
Nov 18
Last Quarter

Hourly Weather History & Observations

Time (MDT) Temp. Windchill Dew Point Humidity Pressure Visibility Wind Dir Wind Speed Gust Speed Precip Events Conditions
12:56 AM 21.9 °F 17.2 °F 19.0 °F 89% 30.44 in 10.0 mi NW 3.5 mph - N/A   Clear
1:56 AM 24.1 °F 18.2 °F 19.9 °F 84% 30.43 in 10.0 mi SSW 4.6 mph - N/A   Scattered Clouds
2:56 AM 23.0 °F 15.8 °F 19.9 °F 88% 30.42 in 10.0 mi South 5.8 mph - N/A   Clear
3:56 AM 19.9 °F 14.9 °F 18.0 °F 92% 30.44 in 10.0 mi ENE 3.5 mph - N/A   Clear
4:56 AM 19.9 °F 11.1 °F 17.1 °F 89% 30.43 in 10.0 mi SSE 6.9 mph - N/A   Clear
5:56 AM 19.0 °F - 16.0 °F 88% 30.45 in 10.0 mi Calm Calm - N/A   Clear
6:56 AM 17.1 °F - 15.1 °F 92% 30.48 in 10.0 mi Calm Calm - N/A   Scattered Clouds
8:56 AM 21.9 °F - 18.0 °F 85% 30.49 in 9.0 mi Calm Calm - N/A   Partly Cloudy
9:56 AM 27.0 °F - 24.1 °F 89% 30.46 in 10.0 mi Calm Calm - N/A   Clear
10:56 AM 32.0 °F - 26.1 °F 79% 30.44 in 10.0 mi Calm Calm - N/A   Clear
11:56 AM 36.0 °F - 21.9 °F 57% 30.40 in 10.0 mi Calm Calm - N/A   Clear
12:56 PM 37.9 °F - 18.0 °F 45% 30.38 in 10.0 mi Calm Calm - N/A   Clear
1:56 PM 41.0 °F 38.0 °F 17.1 °F 38% 30.32 in 10.0 mi North 4.6 mph - N/A   Clear
2:56 PM 41.0 °F - 15.1 °F 35% 30.30 in 10.0 mi Calm Calm - N/A   Clear
3:56 PM 41.0 °F 39.0 °F 12.9 °F 32% 30.26 in 10.0 mi SSE 3.5 mph - N/A   Clear
4:56 PM 43.0 °F 39.5 °F 12.0 °F 28% 30.22 in 10.0 mi East 5.8 mph - N/A   Clear
5:56 PM 37.9 °F 33.5 °F 12.9 °F 36% 30.22 in 10.0 mi East 5.8 mph - N/A   Clear
6:56 PM 33.1 °F 28.7 °F 15.1 °F 48% 30.25 in 10.0 mi East 4.6 mph - N/A   Clear
7:56 PM 32.0 °F 26.4 °F 19.9 °F 61% 30.23 in 10.0 mi South 5.8 mph - N/A   Clear
8:56 PM 32.0 °F 25.6 °F 23.0 °F 69% 30.22 in 10.0 mi SSE 6.9 mph - N/A   Mostly Cloudy
9:56 PM 28.9 °F - 23.0 °F 78% 30.22 in 10.0 mi Calm Calm - N/A   Mostly Cloudy
10:56 PM 30.9 °F 24.3 °F 23.0 °F 72% 30.18 in 10.0 mi SE 6.9 mph - N/A   Overcast
11:56 PM 34.0 °F - 23.0 °F 64% 30.17 in 10.0 mi Calm Calm - N/A   Overcast